Location: Bavegemberg
(50.9500°N, 3.8833°E)
Time: 04:02:20
(UTC+00:00)

Meteor 1-24 Rocket - Pass Details

Date: 23 May 2024
Orbit: 788 x 927 km, 81.3° (Epoch: 21 June)

Event Time Altitude Azimuth Distance (km) Brightness Sun altitude
Exits shadow 02:02:47 - 174° (S) 2,883 6.0 -11.9°
Reaches altitude 10° 02:03:29 10° 173° (S) 2,625 5.8 -11.9°
Maximum altitude 02:09:22 58° 96° (E) 1,076 4.4 -11.3°
Drops below altitude 10° 02:15:13 10° 19° (NNE) 2,617 7.6 -10.8°
Sets 02:17:43 0° 16° (NNE) 3,549 8.4 -10.6°
